Location: Asheville, NC
(35.6000°N, 82.5500°W)
Time: 00:09:38
(UTC-04:00)

Vanguard 3 - Pass Details

Date: 16 March 2018
Orbit: 508 x 3264 km, 33.3° (Epoch: 22 June)

Event Time Altitude Azimuth Distance (km) Brightness Sun altitude
Rises 15:02:35 0° 284° (WNW) 6,381 11.9 48.0°
Reaches altitude 10° 15:07:49 10° 278° (W) 4,933 11.5 47.5°
Maximum altitude 15:19:00 36° 219° (SW) 2,309 11.9 46.1°
Drops below altitude 10° 15:25:48 10° 155° (SSE) 2,971 10.4 45.3°
Sets 15:28:10 0° 145° (SE) 3,643 10.6 44.9°
